Location: Arthington
(6.5349°N, 10.6954°W)
Time: 15:26:55
(UTC+00:00)

Daily predictions for brighter satellites

Satellite Brightness Start Highest point End
(mag) Time Altitude Azimuth Time Altitude Azimuth Time Altitude Azimuth
ATLAS 3B CENTAUR R/B 2.8 18:45:09 10° W 18:49:20 55° NNW 18:59:04 10° NE
NOSS 2-1 (E) 4.0 18:48:25 10° SW 18:52:48 55° WNW 18:56:20 10° NNE
Genesis I 3.6 18:49:49 10° N 18:53:21 38° ENE 18:56:52 10° SE
GPS 2-17 Rocket1 3.0 18:49:00 10° WSW 18:53:36 86° NNW 18:58:04 10° ENE
FALCON 9 DEB 2.4 18:53:09 10° SSW 18:55:24 48° SE 18:57:36 10° NE
YAOGAN 1 3.9 18:52:45 10° ESE 18:55:47 19° ENE 18:58:47 10° NNE
Cosmos 1378 Rocket 3.8 18:56:02 10° SSE 19:00:08 44° E 19:04:13 10° NNE
SWIFT 4.1 18:57:45 10° NNW 19:00:39 18° NNE 19:03:32 10° NE
Cosmos 2297 3.7 18:57:33 10° N 19:03:07 66° ENE 19:08:41 10° SSE
Okean-O 2.6 18:59:15 10° SSE 19:03:40 88° E 19:08:06 10° NNW
ARIANE 3 DEB 3.9 19:02:00 10° SW 19:04:22 20° S 19:06:11 10° SE
ADEOS Rocket 3.8 19:00:50 10° NE 19:05:41 29° ESE 19:10:53 10° SSE
FUSE 4.1 19:00:49 10° NW 19:06:03 53° NNE 19:11:17 10° E
GPS 2-18 Rocket1 3.7 19:04:03 10° WNW 19:07:57 58° SSW 19:11:48 10° ESE
Aureole 3 Rocket 3.4 19:04:45 10° NNE 19:08:16 41° E 19:12:57 10° SSE
STARLINK 1056 4.3 19:06:48 10° S 19:10:05 30° ESE 19:12:32 15° ENE
IUS-18 SRM-1 1.1 19:07:33 10° WNW 19:10:22 70° NNE 19:12:26 10° ESE
Cosmos 1975 2.7 19:07:08 10° N 19:11:09 79° E 19:15:12 10° S
Cosmos 1300 Rocket 4.0 19:08:05 10° NNE 19:12:04 38° E 19:16:06 10° SSE
Cosmos 1544 4.0 19:10:18 10° NNE 19:13:24 26° E 19:16:30 10° SE
STARLINK 1054 4.2 19:10:23 10° S 19:13:45 34° ESE 19:16:04 17° ENE
IRIDIUM 104 4.4 19:09:54 10° S 19:15:07 83° W 19:20:19 10° N
BLOCK DM-SL R/B 4.3 12:39:12 10° W 19:15:53 65° S 19:21:56 10° ESE
STARLINK 1062 4.0 19:13:51 10° SSW 19:17:18 38° ESE 19:19:29 19° ENE
BREEZE-M R/B 4.5 19:17:51 10° SE 19:18:12 11° SE 19:18:12 11° SE
CZ-2D R/B 4.4 19:16:54 10° SE 19:19:58 23° ENE 19:21:55 16° NE
Cosmos 405 4.2 19:17:35 10° SSW 19:20:58 44° W 19:24:20 10° N
STARLINK 1053 3.8 19:17:35 10° SSW 19:21:07 43° ESE 19:23:10 21° ENE
Ariane H10+ 4.2 19:20:51 10° SW 19:22:29 13° SSW 19:23:47 10° SSE
STARLINK 1061 3.6 19:21:00 10° SSW 19:24:35 48° ESE 19:26:30 24° ENE
Cosmos 1939 Rocket 3.7 19:22:44 10° SE 19:26:14 28° ENE 19:28:26 17° NNE
Envisat 3.8 19:21:22 10° S 19:26:19 54° WSW 19:31:15 10° NNW
STARLINK 1067 3.5 19:24:37 10° SSW 19:28:15 55° SE 19:30:02 27° ENE
Meteor 2-9 Rocket 4.2 19:22:48 10° N 19:28:31 84° E 19:34:04 10° S
Atlas Centaur 2 3.5 19:22:57 10° WNW 19:30:30 62° SSW 19:38:55 10° SE
Meteor 1-12 Rocket 4.3 19:25:21 10° N 19:30:54 54° E 19:36:24 10° SSE
STARLINK 1058 3.3 19:28:12 10° SSW 19:31:53 63° ESE 19:33:32 29° NE
Centaur D-1AR AC-41 4.4 19:31:51 10° NW 19:35:21 26° NNE 19:37:29 22° ENE
STARLINK 1043 3.2 19:31:51 10° SSW 19:35:32 72° ESE 19:37:04 33° NE
Okean 1 Rocket 4.2 19:36:26 24° E 19:36:26 24° E 19:39:33 10° SE
Meteor 2-19 Rocket 4.4 19:32:34 10° S 19:38:40 89° E 19:44:47 10° N
Meteor 1-23 Rocket 4.3 19:33:01 10° S 19:38:43 85° W 19:44:29 10° N
STARLINK 1065 3.2 19:35:28 10° SSW 19:39:09 81° SE 19:40:33 36° NE
Atlas 2A Centaur Rocket 4.4 19:23:39 10° SW 19:41:33 33° S 19:45:23 16° ESE
STARLINK 1063 3.2 19:39:12 10° SW 19:42:54 89° WNW 19:44:10 40° NNE
STARLINK 1064 3.3 19:42:47 10° SW 19:46:30 78° NW 19:47:38 42° NNE
Cosmos 2369 Rocket 2.6 19:41:21 10° N 19:46:31 37° ENE 19:51:42 10° SE
STARLINK 1041 3.5 19:46:29 10° SW 19:50:11 69° NW 19:51:10 44° NNE
ARIANE 5 DEB (SYLDA) 4.3 19:45:02 10° W 19:52:00 68° S 19:56:06 27° ESE
Cosmos 2151 Rocket 4.1 19:47:52 10° NNW 19:52:10 60° W 19:56:31 10° S
Cosmos 968 Rocket 4.3 19:48:49 10° SSE 19:53:06 30° ESE 19:53:06 30° ESE
STARLINK 1038 3.7 19:50:12 10° SW 19:53:52 61° NW 19:54:44 45° N
CZ-3A R/B 4.2 19:50:41 10° W 19:54:27 18° SW 19:56:34 10° S
STARLINK 1027 4.5 19:53:19 10° WSW 19:55:49 26° NW 19:56:09 25° NW
STARLINK 1021 4.5 19:53:46 10° WSW 19:56:14 25° NW 19:56:34 25° NW
CSL-04 Rocket 3.7 19:52:00 10° S 19:57:17 75° WSW 20:02:32 10° NNW
STARLINK 1046 3.9 19:53:57 10° SW 19:57:35 53° NW 19:58:18 44° NNW
BREEZE-M DEB (TANK) 3.3 19:51:35 10° SSW 19:59:18 57° SE 19:59:44 53° ESE
STARLINK 1039 4.0 19:57:41 10° SW 20:01:17 47° NW 20:01:52 42° NNW
ASC 2 Rocket 4.3 19:55:06 10° WNW 20:01:25 71° NNE 20:06:41 28° ESE
STARLINK 1045 4.2 20:00:17 10° SW 20:03:50 43° NW 20:04:19 40° NNW
Cosmos 1943 Rocket 2.0 19:58:58 10° N 20:04:30 76° ENE 20:10:00 10° SSE
Ariane Rocket 3.2 20:04:32 10° SSE 20:08:41 50° ESE 20:08:41 50° ESE
ATLAS CENTAUR R/B 3.4 20:09:23 10° S 20:11:34 21° SSE 20:11:34 21° SSE
Skynet4D Del rocket 4.0 20:06:16 10° WSW 20:13:38 77° SSE 20:15:13 54° E
CZ-4 R/B 4.1 20:11:12 10° SSW 20:14:04 19° W 20:16:52 10° NW
ARIANE 5 DEB (SYLDA) 3.3 20:07:33 10° W 20:16:45 47° SSW 20:17:24 44° SSE
Meteor 2-21 4.2 20:13:36 10° S 20:19:37 71° E 20:20:18 65° NE
Cosmos 967 Rocket 4.5 20:15:02 10° S 20:21:08 58° ESE 20:21:09 58° ESE
Cosmos 1975 Rocket 4.4 20:21:02 10° SSW 20:25:01 37° W 20:26:22 29° NW
Meteor 1-15 Rocket 4.5 20:43:03 70° SW 20:43:03 70° SW 20:48:31 10° S
COSMOS 2406 3.7 20:44:37 10° SSW 20:49:19 56° SW 20:49:19 56° SW
ATLAS 5 CENTAUR R/B 4.2 21:34:51 10° W 21:43:04 62° SSW 22:32:02 10° ESE
